| time (UTC) | temp F | wind direction | speed knots | gust knots | rain 1hr in | rain 24hr in | rain mn in | humidity % | barometer mb |
| 20260504045332 | 45 | 131 | 0.0 | 0.9 | 0.00 | 0.00 | 0.00 | 60 | 1013.0 |
| 20260504044830 | 45 | 135 | 0.9 | 0.9 | 0.00 | 0.00 | 0.00 | 59 | 1013.0 |
| 20260504044327 | 45 | 172 | 1.7 | 1.7 | 0.00 | 0.00 | 0.00 | 58 | 1013.0 |
| 20260504043825 | 46 | 125 | 0.9 | 0.9 | 0.00 | 0.00 | 0.00 | 57 | 1013.0 |
| 20260504043321 | 46 | 152 | 0.9 | 0.9 | 0.00 | 0.00 | 0.00 | 57 | 1013.1 |
| 20260504042818 | 46 | 152 | 0.9 | 1.7 | 0.00 | 0.00 | 0.00 | 56 | 1013.0 |
| 20260504042315 | 47 | 181 | 1.7 | 2.6 | 0.00 | 0.00 | 0.00 | 56 | 1012.9 |
| 20260504041811 | 47 | 147 | 1.7 | 1.7 | 0.00 | 0.00 | 0.00 | 55 | 1013.1 |
| 20260504041307 | 47 | 199 | 1.7 | 3.5 | 0.00 | 0.00 | 0.00 | 54 | 1012.9 |
| 20260504040804 | 47 | 176 | 1.7 | 2.6 | 0.00 | 0.00 | 0.00 | 54 | 1013.0 |
| 20260504040301 | 47 | 153 | 0.9 | 2.6 | 0.00 | 0.00 | 0.00 | 54 | 1013.0 |
| 20260504035757 | 47 | 139 | 0.9 | 2.6 | 0.00 | 0.00 | 0.00 | 55 | 1013.0 |
| 20260504035254 | 47 | 124 | 0.9 | 1.7 | 0.00 | 0.00 | 0.00 | 56 | 1013.0 |
| 20260504034751 | 47 | 188 | 1.7 | 2.6 | 0.00 | 0.00 | 0.00 | 54 | 1012.8 |
| 20260504034249 | 47 | 264 | 2.6 | 2.6 | 0.00 | 0.00 | 0.00 | 55 | 1012.9 |
| 20260504033746 | 47 | 174 | 0.9 | 1.7 | 0.00 | 0.00 | 0.00 | 55 | 1012.8 |
| 20260504033244 | 46 | 210 | 1.7 | 1.7 | 0.00 | 0.00 | 0.00 | 56 | 1012.9 |
| 20260504032740 | 46 | 143 | 0.9 | 1.7 | 0.00 | 0.00 | 0.00 | 56 | 1012.9 |
| 20260504032237 | 46 | 187 | 1.7 | 2.6 | 0.00 | 0.00 | 0.00 | 56 | 1013.1 |
| 20260504031734 | 46 | 259 | 1.7 | 2.6 | 0.00 | 0.00 | 0.00 | 56 | 1012.9 |
| 20260504031232 | 46 | 148 | 0.9 | 0.9 | 0.00 | 0.00 | 0.00 | 57 | 1012.7 |
| 20260504030727 | 46 | 134 | 0.0 | 0.0 | 0.00 | 0.00 | 0.00 | 58 | 1012.8 |
| 20260504030225 | 46 | 136 | 0.0 | 0.0 | 0.00 | 0.00 | 0.00 | 57 | 1012.8 |
| 20260504025721 | 46 | 130 | 0.0 | 0.0 | 0.00 | 0.00 | 0.00 | 56 | 1012.9 |
| 20260504025218 | 47 | 137 | 0.9 | 1.7 | 0.00 | 0.00 | 0.00 | 55 | 1012.9 |
| 20260504024715 | 47 | 128 | 0.0 | 0.9 | 0.00 | 0.00 | 0.00 | 56 | 1013.0 |
| 20260504024211 | 47 | 170 | 0.9 | 0.9 | 0.00 | 0.00 | 0.00 | 56 | 1012.9 |
| 20260504023708 | 47 | 172 | 0.9 | 1.7 | 0.00 | 0.00 | 0.00 | 55 | 1012.9 |
| 20260504023204 | 47 | 136 | 0.9 | 1.7 | 0.00 | 0.00 | 0.00 | 54 | 1013.0 |
| 20260504022701 | 47 | 137 | 0.0 | 0.0 | 0.00 | 0.00 | 0.00 | 56 | 1012.9 |
| 20260504022157 | 47 | 145 | 0.9 | 1.7 | 0.00 | 0.00 | 0.00 | 55 | 1013.0 |
| 20260504021655 | 47 | 135 | 0.0 | 0.9 | 0.00 | 0.00 | 0.00 | 55 | 1013.0 |
| 20260504021151 | 48 | 144 | 0.9 | 0.9 | 0.00 | 0.00 | 0.00 | 54 | 1013.0 |
| 20260504020648 | 48 | 147 | 0.9 | 0.9 | 0.00 | 0.00 | 0.00 | 54 | 1012.8 |
| 20260504020144 | 48 | 132 | 0.0 | 1.7 | 0.00 | 0.00 | 0.00 | 53 | 1012.9 |
| 20260504015641 | 49 | 291 | 0.9 | 1.7 | 0.00 | 0.00 | 0.00 | 52 | 1012.9 |
| 20260504015137 | 49 | 156 | 0.9 | 2.6 | 0.00 | 0.00 | 0.00 | 52 | 1012.9 |
| 20260504014633 | 48 | 242 | 0.9 | 1.7 | 0.00 | 0.00 | 0.00 | 52 | 1012.7 |
| 20260504014130 | 48 | 154 | 0.9 | 0.9 | 0.00 | 0.00 | 0.00 | 52 | 1012.7 |
| 20260504013628 | 48 | 138 | 0.9 | 0.9 | 0.00 | 0.00 | 0.00 | 53 | 1012.8 |
| 20260504013125 | 49 | 123 | 0.0 | 1.7 | 0.00 | 0.00 | 0.00 | 52 | 1012.6 |
| 20260504012622 | 49 | 135 | 0.9 | 0.9 | 0.00 | 0.00 | 0.00 | 52 | 1012.8 |
| 20260504012120 | 49 | 132 | 0.0 | 0.9 | 0.00 | 0.00 | 0.00 | 52 | 1012.8 |
| 20260504011617 | 49 | 127 | 0.9 | 0.9 | 0.00 | 0.00 | 0.00 | 52 | 1012.6 |
| 20260504011113 | 49 | 142 | 0.9 | 0.9 | 0.00 | 0.00 | 0.00 | 52 | 1012.7 |
| 20260504010609 | 49 | 141 | 0.9 | 1.7 | 0.00 | 0.00 | 0.00 | 52 | 1012.7 |
| 20260504010105 | 49 | 130 | 0.0 | 0.9 | 0.00 | 0.00 | 0.00 | 51 | 1012.7 |
| 20260504005602 | 50 | 150 | 0.9 | 0.9 | 0.00 | 0.00 | 0.00 | 50 | 1012.7 |
| 20260504005059 | 50 | 167 | 0.0 | 0.9 | 0.00 | 0.00 | 0.00 | 50 | 1012.6 |
| 20260504004557 | 50 | 136 | 0.0 | 0.9 | 0.00 | 0.00 | 0.00 | 49 | 1012.5 |
| 20260504004054 | 51 | 127 | 0.0 | 0.9 | 0.00 | 0.00 | 0.00 | 49 | 1012.5 |
| 20260504003549 | 51 | 155 | 0.9 | 0.9 | 0.00 | 0.00 | 0.00 | 47 | 1012.5 |
| 20260504003046 | 51 | 206 | 1.7 | 1.7 | 0.00 | 0.00 | 0.00 | 46 | 1012.5 |
| 20260504002543 | 52 | 157 | 0.9 | 0.9 | 0.00 | 0.00 | 0.00 | 46 | 1012.1 |
| 20260504002041 | 52 | 155 | 0.9 | 2.6 | 0.00 | 0.00 | 0.00 | 45 | 1012.1 |
| 20260504001539 | 53 | 162 | 1.7 | 2.6 | 0.00 | 0.00 | 0.00 | 44 | 1012.5 |
| 20260504001034 | 53 | 163 | 0.9 | 1.7 | 0.00 | 0.00 | 0.00 | 43 | 1012.2 |
| 20260504000532 | 53 | 178 | 1.7 | 2.6 | 0.00 | 0.00 | 0.00 | 44 | 1012.2 |
| 20260504000029 | 53 | 224 | 2.6 | 5.2 | 0.00 | 0.00 | 0.00 | 42 | 1012.3 |
| 20260503235527 | 54 | 147 | 0.9 | 2.6 | 0.00 | 0.00 | 0.00 | 42 | 1012.1 |
| 20260503235024 | 54 | 284 | 1.7 | 3.5 | 0.00 | 0.00 | 0.00 | 42 | 1012.1 |
| 20260503234521 | 54 | 263 | 1.7 | 2.6 | 0.00 | 0.00 | 0.00 | 42 | 1012.0 |
| 20260503234020 | 55 | 286 | 3.5 | 7.0 | 0.00 | 0.00 | 0.00 | 41 | 1011.9 |
| 20260503233516 | 55 | 192 | 1.7 | 2.6 | 0.00 | 0.00 | 0.00 | 40 | 1012.0 |
| 20260503233012 | 55 | 249 | 3.5 | 5.2 | 0.00 | 0.00 | 0.00 | 40 | 1012.0 |
| 20260503232509 | 56 | 210 | 2.6 | 2.6 | 0.00 | 0.00 | 0.00 | 40 | 1012.1 |
| 20260503232007 | 56 | 239 | 2.6 | 2.6 | 0.00 | 0.00 | 0.00 | 41 | 1012.0 |
| 20260503231504 | 56 | 283 | 1.7 | 3.5 | 0.00 | 0.00 | 0.00 | 39 | 1012.0 |
| 20260503231001 | 56 | 230 | 1.7 | 6.1 | 0.00 | 0.00 | 0.00 | 40 | 1012.0 |
| 20260503230457 | 56 | 175 | 3.5 | 7.0 | 0.00 | 0.00 | 0.00 | 40 | 1011.9 |
| 20260503225955 | 56 | 257 | 3.5 | 6.1 | 0.00 | 0.00 | 0.00 | 39 | 1012.1 |
| 20260503225451 | 56 | 222 | 5.2 | 7.0 | 0.00 | 0.00 | 0.00 | 39 | 1011.7 |
| 20260503224947 | 57 | 269 | 3.5 | 5.2 | 0.00 | 0.00 | 0.00 | 38 | 1012.0 |
| 20260503224444 | 57 | 269 | 1.7 | 6.1 | 0.00 | 0.00 | 0.00 | 39 | 1012.1 |
| 20260503223942 | 56 | 207 | 1.7 | 3.5 | 0.00 | 0.00 | 0.00 | 41 | 1012.0 |
| 20260503223440 | 55 | 271 | 2.6 | 6.1 | 0.00 | 0.00 | 0.00 | 40 | 1012.1 |
| 20260503222935 | 55 | 248 | 2.6 | 6.1 | 0.00 | 0.00 | 0.00 | 42 | 1012.0 |
| 20260503222434 | 55 | 172 | 2.6 | 6.1 | 0.00 | 0.00 | 0.00 | 41 | 1012.0 |
| 20260503221931 | 55 | 263 | 5.2 | 7.8 | 0.00 | 0.00 | 0.00 | 40 | 1012.1 |
| 20260503221429 | 56 | 184 | 3.5 | 5.2 | 0.00 | 0.00 | 0.00 | 39 | 1011.9 |
| 20260503220926 | 58 | 253 | 3.5 | 8.7 | 0.00 | 0.00 | 0.00 | 38 | 1012.1 |
| 20260503220422 | 57 | 223 | 3.5 | 7.8 | 0.00 | 0.00 | 0.00 | 38 | 1012.2 |
| 20260503215919 | 55 | 246 | 4.3 | 7.8 | 0.00 | 0.00 | 0.00 | 39 | 1012.1 |
| 20260503215416 | 55 | 299 | 7.0 | 7.0 | 0.00 | 0.00 | 0.00 | 39 | 1012.1 |
| 20260503214914 | 56 | 249 | 4.3 | 9.6 | 0.00 | 0.00 | 0.00 | 40 | 1012.2 |
| 20260503214411 | 59 | 234 | 2.6 | 7.0 | 0.00 | 0.00 | 0.00 | 38 | 1012.1 |
| 20260503213909 | 57 | 267 | 5.2 | 7.8 | 0.00 | 0.00 | 0.00 | 39 | 1012.1 |
| 20260503213406 | 56 | 73 | 1.7 | 7.0 | 0.00 | 0.00 | 0.00 | 40 | 1012.2 |
| 20260503212903 | 56 | 273 | 1.7 | 3.5 | 0.00 | 0.00 | 0.00 | 39 | 1011.9 |
| 20260503212401 | 56 | 298 | 5.2 | 7.8 | 0.00 | 0.00 | 0.00 | 39 | 1012.1 |
| 20260503211857 | 56 | 274 | 5.2 | 7.8 | 0.00 | 0.00 | 0.00 | 38 | 1011.9 |
| 20260503211354 | 57 | 251 | 1.7 | 6.1 | 0.00 | 0.00 | 0.00 | 39 | 1012.0 |
| 20260503210849 | 57 | 264 | 7.8 | 9.6 | 0.00 | 0.00 | 0.00 | 37 | 1011.9 |
| 20260503210347 | 56 | 193 | 4.3 | 12.2 | 0.00 | 0.00 | 0.00 | 39 | 1012.0 |
| 20260503205842 | 56 | 238 | 2.6 | 6.1 | 0.00 | 0.00 | 0.00 | 38 | 1011.9 |
| 20260503205339 | 57 | 275 | 5.2 | 7.8 | 0.00 | 0.00 | 0.00 | 38 | 1012.0 |
| 20260503204835 | 59 | 221 | 4.3 | 8.7 | 0.00 | 0.00 | 0.00 | 38 | 1012.0 |
| 20260503204332 | 57 | 212 | 1.7 | 5.2 | 0.00 | 0.00 | 0.00 | 39 | 1012.0 |
| 20260503203829 | 59 | 214 | 3.5 | 6.1 | 0.00 | 0.00 | 0.00 | 38 | 1012.0 |
| 20260503203327 | 58 | 78 | 0.9 | 8.7 | 0.00 | 0.00 | 0.00 | 39 | 1012.3 |
| 20260503202824 | 56 | 159 | 0.9 | 5.2 | 0.00 | 0.00 | 0.00 | 41 | 1012.2 |
| 20260503202322 | 56 | 216 | 4.3 | 8.7 | 0.00 | 0.00 | 0.00 | 39 | 1012.3 |
| 20260503201820 | 58 | 250 | 5.2 | 7.0 | 0.00 | 0.00 | 0.00 | 38 | 1012.6 |
| 20260503201316 | 57 | 258 | 6.1 | 7.8 | 0.00 | 0.00 | 0.00 | 38 | 1012.3 |
| 20260503200814 | 56 | 19 | 3.5 | 9.6 | 0.00 | 0.00 | 0.00 | 38 | 1012.3 |
| 20260503200310 | 56 | 247 | 0.9 | 8.7 | 0.00 | 0.00 | 0.00 | 40 | 1012.6 |
| 20260503195807 | 57 | 232 | 4.3 | 6.1 | 0.00 | 0.00 | 0.00 | 37 | 1012.6 |
| 20260503195304 | 56 | 295 | 4.3 | 8.7 | 0.00 | 0.00 | 0.00 | 38 | 1012.5 |
| 20260503194801 | 56 | 235 | 7.8 | 9.6 | 0.00 | 0.00 | 0.00 | 38 | 1012.5 |
| 20260503194256 | 55 | 273 | 6.1 | 7.8 | 0.00 | 0.00 | 0.00 | 38 | 1012.6 |
| 20260503193753 | 56 | 288 | 6.1 | 9.6 | 0.00 | 0.00 | 0.00 | 38 | 1012.6 |
| 20260503193249 | 56 | 282 | 4.3 | 7.0 | 0.00 | 0.00 | 0.00 | 38 | 1012.6 |
| 20260503192739 | 57 | 290 | 6.1 | 7.8 | 0.00 | 0.00 | 0.00 | 38 | 1012.8 |
| 20260503192234 | 58 | 289 | 7.0 | 7.8 | 0.00 | 0.00 | 0.00 | 36 | 1012.8 |
| 20260503191732 | 56 | 280 | 4.3 | 9.6 | 0.00 | 0.00 | 0.00 | 37 | 1013.0 |
| 20260503191229 | 56 | 232 | 7.0 | 8.7 | 0.00 | 0.00 | 0.00 | 40 | 1012.8 |
| 20260503190726 | 56 | 101 | 3.5 | 8.7 | 0.00 | 0.00 | 0.00 | 39 | 1013.1 |
| 20260503190222 | 56 | 171 | 1.7 | 7.8 | 0.00 | 0.00 | 0.00 | 41 | 1013.1 |
| 20260503185720 | 56 | 244 | 7.8 | 11.3 | 0.00 | 0.00 | 0.00 | 38 | 1013.2 |
| 20260503185215 | 57 | 237 | 5.2 | 7.0 | 0.00 | 0.00 | 0.00 | 39 | 1013.1 |
| 20260503184710 | 57 | 263 | 3.5 | 7.0 | 0.00 | 0.00 | 0.00 | 39 | 1013.2 |
| 20260503184206 | 55 | 240 | 4.3 | 5.2 | 0.00 | 0.00 | 0.00 | 39 | 1013.3 |
| 20260503183703 | 56 | 304 | 5.2 | 6.1 | 0.00 | 0.00 | 0.00 | 39 | 1013.3 |
| 20260503183200 | 55 | 256 | 3.5 | 7.0 | 0.00 | 0.00 | 0.00 | 41 | 1013.3 |
| 20260503182658 | 55 | 272 | 5.2 | 7.0 | 0.00 | 0.00 | 0.00 | 40 | 1013.3 |
| 20260503182156 | 55 | 239 | 2.6 | 7.0 | 0.00 | 0.00 | 0.00 | 46 | 1013.5 |
| 20260503181652 | 57 | 131 | 0.9 | 7.0 | 0.00 | 0.00 | 0.00 | 46 | 1013.4 |
| 20260503181149 | 54 | 238 | 1.7 | 12.2 | 0.00 | 0.00 | 0.00 | 40 | 1013.5 |
| 20260503180646 | 56 | 229 | 7.0 | 8.7 | 0.00 | 0.00 | 0.00 | 41 | 1013.4 |
| 20260503180145 | 54 | 290 | 0.9 | 7.8 | 0.00 | 0.00 | 0.00 | 45 | 1013.3 |
| 20260503175641 | 53 | 251 | 6.1 | 7.8 | 0.00 | 0.00 | 0.00 | 41 | 1013.4 |
| 20260503175138 | 53 | 288 | 1.7 | 7.0 | 0.00 | 0.00 | 0.00 | 45 | 1013.6 |
| 20260503174635 | 54 | 210 | 4.3 | 13.0 | 0.00 | 0.00 | 0.00 | 41 | 1013.6 |
| 20260503174132 | 55 | 302 | 4.3 | 7.0 | 0.00 | 0.00 | 0.00 | 43 | 1013.6 |
| 20260503173627 | 52 | 307 | 7.8 | 11.3 | 0.00 | 0.00 | 0.00 | 41 | 1013.7 |
| 20260503173124 | 53 | 232 | 5.2 | 12.2 | 0.00 | 0.00 | 0.00 | 40 | 1013.6 |
| 20260503172621 | 53 | 200 | 4.3 | 7.0 | 0.00 | 0.00 | 0.00 | 41 | 1013.8 |
| 20260503172118 | 55 | 159 | 2.6 | 7.8 | 0.00 | 0.00 | 0.00 | 45 | 1013.8 |
| 20260503171615 | 54 | 251 | 2.6 | 6.1 | 0.00 | 0.00 | 0.00 | 43 | 1013.5 |
| 20260503171112 | 52 | 273 | 6.1 | 7.8 | 0.00 | 0.00 | 0.00 | 44 | 1013.6 |
| 20260503170609 | 52 | 213 | 2.6 | 7.0 | 0.00 | 0.00 | 0.00 | 44 | 1013.9 |
| 20260503170105 | 52 | 230 | 3.5 | 8.7 | 0.00 | 0.00 | 0.00 | 43 | 1013.8 |
| 20260503151000 | 49 | 246 | 5.2 | 7.0 | 0.00 | 0.00 | 0.00 | 46 | 1014.9 |
| 20260503150457 | 47 | 299 | 3.5 | 9.6 | 0.00 | 0.00 | 0.00 | 50 | 1015.0 |
| 20260503131350 | 43 | 272 | 3.5 | 7.8 | 0.00 | 0.00 | 0.00 | 61 | 1015.4 |
| 20260503130847 | 43 | 245 | 5.2 | 7.8 | 0.00 | 0.00 | 0.00 | 60 | 1015.4 |
| 20260503130345 | 43 | 240 | 2.6 | 5.2 | 0.00 | 0.00 | 0.00 | 61 | 1015.5 |
| 20260503110744 | 35 | 136 | 0.9 | 1.7 | 0.00 | 0.00 | 0.00 | 74 | 1014.9 |
| 20260503110241 | 35 | 166 | 0.0 | 0.9 | 0.00 | 0.00 | 0.00 | 74 | 1014.8 |
| 20260503100207 | 34 | 274 | 1.7 | 2.6 | 0.00 | 0.00 | 0.00 | 75 | 1014.0 |
| 20260503090131 | 36 | 279 | 3.5 | 5.2 | 0.00 | 0.00 | 0.00 | 71 | 1013.9 |
| 20260503081602 | 36 | 133 | 0.0 | 0.9 | 0.00 | 0.00 | 0.00 | 73 | 1013.7 |
| 20260503081100 | 36 | 203 | 1.7 | 1.7 | 0.00 | 0.00 | 0.00 | 72 | 1013.7 |
| 20260503080555 | 36 | 209 | 1.7 | 2.6 | 0.00 | 0.00 | 0.00 | 72 | 1013.5 |
| 20260503072529 | 36 | 141 | 0.9 | 0.9 | 0.00 | 0.00 | 0.00 | 71 | 1013.5 |
| 20260503072026 | 36 | 294 | 3.5 | 5.2 | 0.00 | 0.00 | 0.00 | 70 | 1013.5 |
| 20260503071523 | 37 | 151 | 0.9 | 1.7 | 0.00 | 0.00 | 0.00 | 70 | 1013.4 |
| 20260503071020 | 37 | 274 | 2.6 | 2.6 | 0.00 | 0.00 | 0.00 | 69 | 1013.5 |
| 20260503070516 | 37 | 130 | 0.9 | 1.7 | 0.00 | 0.00 | 0.00 | 68 | 1013.3 |
| 20260503054934 | 37 | 197 | 0.9 | 2.6 | 0.00 | 0.00 | 0.00 | 68 | 1013.6 |
| 20260503054430 | 37 | 300 | 1.7 | 2.6 | 0.00 | 0.00 | 0.00 | 69 | 1013.6 |
| 20260503053928 | 37 | 151 | 0.0 | 0.9 | 0.00 | 0.00 | 0.00 | 69 | 1013.5 |
| 20260503053426 | 38 | 119 | 0.0 | 0.0 | 0.00 | 0.00 | 0.00 | 69 | 1013.4 |
| 20260503052922 | 38 | 127 | 0.0 | 0.9 | 0.00 | 0.00 | 0.00 | 67 | 1013.7 |
| 20260503052420 | 38 | 115 | 0.0 | 0.9 | 0.00 | 0.00 | 0.00 | 68 | 1013.8 |
| 20260503051916 | 39 | 122 | 0.0 | 0.9 | 0.00 | 0.00 | 0.00 | 68 | 1013.7 |
| 20260503051412 | 39 | 151 | 1.7 | 1.7 | 0.00 | 0.00 | 0.00 | 66 | 1013.7 |
| 20260503050909 | 39 | 164 | 0.9 | 1.7 | 0.00 | 0.00 | 0.00 | 66 | 1013.7 |
| 20260503050405 | 39 | 124 | 0.0 | 0.9 | 0.00 | 0.00 | 0.00 | 68 | 1013.5 |
| 20260503045903 | 39 | 123 | 0.0 | 0.9 | 0.00 | 0.00 | 0.00 | 66 | 1013.6 |